Hourly Weather Roundup
Issued by NWS

Home | Current Version | Previous Version | Text Only | Print | Product List | Glossary On
Versions: 1 2 3 4 5 6 7 8 9 10 11 12 13 14 15 16 17 18 19 20 21 22 23 24 25 26 27 28 29 30 31 32 33 34 35 36 37 38 39 40 41 42 43 44 45 46 47 48 49 50
774
NZUS43 KILX 251310
HWRCRS

NWR Hourly Weather Roundup
National Weather Service Lincoln IL
800 AM CDT SUN JUN 25 2017


CITY           SKY/WX    TMP DP  RH WIND       PRES   REMARKS
Champaign      SUNNY     63  50  62 W7        30.17R
Lawrenceville  SUNNY     67  53  61 W8        30.18R
Peoria         SUNNY     63  51  65 W5        30.17S
Springfield    SUNNY     64  53  67 W7        30.19R
$$


CITY           SKY/WX    TMP DP  RH WIND       PRES   REMARKS
Bloomington    MOSUNNY   64  48  56 W8        30.18R
Danville       SUNNY     62  49  61 W5        30.14R
Decatur        SUNNY     63  51  65 W5        30.17S
Effingham      SUNNY     65  53  64 SW7       30.21S
Flora          SUNNY     69  50  49 W12       30.19S
Galesburg      SUNNY     59  50  70 W8        30.19R
Jacksonville   MOSUNNY   62  53  70 W5        30.19R
Lacon          SUNNY     63  51  65 W7        30.16R
La Salle       SUNNY     60  49  67 W10       30.15R
Lincoln        SUNNY     64  52  64 W3        30.18R
Litchfield     MOSUNNY   64  51  63 W7        30.20S

CITY           SKY/WX    TMP DP  RH WIND       PRES   REMARKS
Macomb         SUNNY     61  51  69 W9        30.21R
Mattoon        SUNNY     64  53  67 W8        30.17R
Moline         SUNNY     62  49  62 W10       30.17R
Olney          SUNNY     65  55  69 W5        30.20R
Paris          SUNNY     62  54  76 W9        30.17S
Pontiac        MOSUNNY   64  50  61 W12G17    30.16R
Quincy         SUNNY     64  51  62 NW7       30.20R
Rantoul        SUNNY     65  51  61 NW6       30.16S
Robinson       SUNNY     63  53  70 NW7       30.19R
Taylorville    SUNNY     63  52  66 W8        30.19R
Terre Haute    SUNNY     65  49  56 W8        30.16S
$$


CITY           SKY/WX    TMP DP  RH WIND       PRES   REMARKS
Burlington     SUNNY     62  47  57 NW8       30.19R
Chicago        MOSUNNY   60  49  66 W12       30.10R
Des Moines     SUNNY     59  46  62 NW12      30.25R
Evansville     SUNNY     67  54  63 SW6       30.20R
Indianapolis   MOSUNNY   65  50  58 W12       30.15R
Kansas City    SUNNY     64  51  62 N6        30.27S
Milwaukee      MOSUNNY   59  50  72 W13       30.05R
St Louis       MOSUNNY   70  50  49 W13       30.22R
$$





USA.gov is the U.S. government's official web portal to all federal, state and local government web resources and services.